Year,Month,Day,Hour,Minute,Value (Times are PST for temperature in C)
2015,04,20,00,00,9.50
2015,04,20,00,01,9.50
2015,04,20,00,02,9.40
2015,04,20,00,03,9.40
2015,04,20,00,04,9.40
2015,04,20,00,05,9.30
2015,04,20,00,06,9.30
2015,04,20,00,07,9.30
2015,04,20,00,08,9.20
2015,04,20,00,09,9.20
2015,04,20,00,10,9.20
2015,04,20,00,11,9.10
2015,04,20,00,12,9.10
2015,04,20,00,13,9.10
2015,04,20,00,14,9.10
2015,04,20,00,15,9.10
2015,04,20,00,16,9.10
2015,04,20,00,17,9.00
2015,04,20,00,18,9.00
2015,04,20,00,19,9.00
2015,04,20,00,20,8.90
2015,04,20,00,21,8.90
2015,04,20,00,22,8.90
2015,04,20,00,23,8.80
2015,04,20,00,24,8.80
2015,04,20,00,25,8.80
2015,04,20,00,26,8.80
2015,04,20,00,27,8.80
2015,04,20,00,28,8.80
2015,04,20,00,29,8.70
2015,04,20,00,30,8.70
2015,04,20,00,31,8.70
2015,04,20,00,32,8.70
2015,04,20,00,33,8.70
2015,04,20,00,34,8.60
2015,04,20,00,35,8.60
2015,04,20,00,36,8.60
2015,04,20,00,37,8.60
2015,04,20,00,38,8.60
2015,04,20,00,39,8.60
2015,04,20,00,40,8.60
2015,04,20,00,41,8.60
2015,04,20,00,42,8.60
2015,04,20,00,43,8.50
2015,04,20,00,44,8.50
2015,04,20,00,45,8.50
2015,04,20,00,46,8.40
2015,04,20,00,47,8.40
2015,04,20,00,48,8.40
2015,04,20,00,49,8.40
2015,04,20,00,50,8.30
2015,04,20,00,51,8.30
2015,04,20,00,52,8.30
2015,04,20,00,53,8.30
2015,04,20,00,54,8.30
2015,04,20,00,55,8.30
2015,04,20,00,56,8.20
2015,04,20,00,57,8.20
2015,04,20,00,58,8.20
2015,04,20,00,59,8.20
2015,04,20,01,00,8.20
2015,04,20,01,01,8.20
2015,04,20,01,02,8.20
2015,04,20,01,03,8.20
2015,04,20,01,04,8.10
2015,04,20,01,05,8.10
2015,04,20,01,06,8.10
2015,04,20,01,07,8.10
2015,04,20,01,08,8.00
2015,04,20,01,09,8.00
2015,04,20,01,10,8.00
2015,04,20,01,11,8.00
2015,04,20,01,12,8.00
2015,04,20,01,13,7.90
2015,04,20,01,14,7.90
2015,04,20,01,15,7.90
2015,04,20,01,16,7.90
2015,04,20,01,17,7.90
2015,04,20,01,18,7.90
2015,04,20,01,19,7.90
2015,04,20,01,20,7.90
2015,04,20,01,21,7.90
2015,04,20,01,22,7.90
2015,04,20,01,23,7.90
2015,04,20,01,24,7.90
2015,04,20,01,25,7.80
2015,04,20,01,26,7.80
2015,04,20,01,27,7.80
2015,04,20,01,28,7.80
2015,04,20,01,29,7.80
2015,04,20,01,30,7.80
2015,04,20,01,31,7.80
2015,04,20,01,32,7.90
2015,04,20,01,33,8.00
2015,04,20,01,34,8.00
2015,04,20,01,35,8.00
2015,04,20,01,36,8.10
2015,04,20,01,37,8.10
2015,04,20,01,38,8.10
2015,04,20,01,39,8.10
2015,04,20,01,40,8.10
2015,04,20,01,41,8.10
2015,04,20,01,42,8.00
2015,04,20,01,43,8.00
2015,04,20,01,44,8.00
2015,04,20,01,45,7.90
2015,04,20,01,46,7.90
2015,04,20,01,47,7.90
2015,04,20,01,48,7.90
2015,04,20,01,49,8.00
2015,04,20,01,50,8.00
2015,04,20,01,51,8.00
2015,04,20,01,52,8.00
2015,04,20,01,53,8.00
2015,04,20,01,54,8.10
2015,04,20,01,55,8.10
2015,04,20,01,56,8.10
2015,04,20,01,57,8.10
2015,04,20,01,58,8.20
2015,04,20,01,59,8.30
2015,04,20,02,00,8.30
2015,04,20,02,01,8.30
2015,04,20,02,02,8.40
2015,04,20,02,03,8.40
2015,04,20,02,04,8.40
2015,04,20,02,05,8.40
2015,04,20,02,06,8.40
2015,04,20,02,07,8.40
2015,04,20,02,08,8.40
2015,04,20,02,09,8.30
2015,04,20,02,10,8.30
2015,04,20,02,11,8.30
2015,04,20,02,12,8.40
2015,04,20,02,13,8.40
2015,04,20,02,14,8.50
2015,04,20,02,15,8.50
2015,04,20,02,16,8.50
2015,04,20,02,17,8.50
2015,04,20,02,18,8.60
2015,04,20,02,19,8.60
2015,04,20,02,20,8.60
2015,04,20,02,21,8.60
2015,04,20,02,22,8.60
2015,04,20,02,23,8.60
2015,04,20,02,24,8.50
2015,04,20,02,25,8.40
2015,04,20,02,26,8.40
2015,04,20,02,27,8.30
2015,04,20,02,28,8.30
2015,04,20,02,29,8.20
2015,04,20,02,30,8.20
2015,04,20,02,31,8.20
2015,04,20,02,32,8.10
2015,04,20,02,33,8.10
2015,04,20,02,34,8.10
2015,04,20,02,35,8.00
2015,04,20,02,36,8.00
2015,04,20,02,37,8.00
2015,04,20,02,38,8.00
2015,04,20,02,39,7.90
2015,04,20,02,40,7.90
2015,04,20,02,41,7.90
2015,04,20,02,42,7.90
2015,04,20,02,43,7.80
2015,04,20,02,44,7.80
2015,04,20,02,45,7.80
2015,04,20,02,46,7.80
2015,04,20,02,47,7.80
2015,04,20,02,48,7.80
2015,04,20,02,49,7.70
2015,04,20,02,50,7.70
2015,04,20,02,51,7.70
2015,04,20,02,52,7.70
2015,04,20,02,53,7.70
2015,04,20,02,54,7.70
2015,04,20,02,55,7.70
2015,04,20,02,56,7.70
2015,04,20,02,57,7.70
2015,04,20,02,58,7.70
2015,04,20,02,59,7.60
2015,04,20,03,00,7.60
2015,04,20,03,01,7.60
2015,04,20,03,02,7.60
2015,04,20,03,03,7.60
2015,04,20,03,04,7.60
2015,04,20,03,05,7.50
2015,04,20,03,06,7.50
2015,04,20,03,07,7.50
2015,04,20,03,08,7.40
2015,04,20,03,09,7.40
2015,04,20,03,10,7.30
2015,04,20,03,11,7.30
2015,04,20,03,12,7.30
2015,04,20,03,13,7.30
2015,04,20,03,14,7.20
2015,04,20,03,15,7.20
2015,04,20,03,16,7.20
2015,04,20,03,17,7.20
2015,04,20,03,18,7.10
2015,04,20,03,19,7.10
2015,04,20,03,20,7.10
2015,04,20,03,21,7.10
2015,04,20,03,22,7.10
2015,04,20,03,23,7.10
2015,04,20,03,24,7.10
2015,04,20,03,25,7.10
2015,04,20,03,26,7.10
2015,04,20,03,27,7.10
2015,04,20,03,28,7.10
2015,04,20,03,29,7.10
2015,04,20,03,30,7.10
2015,04,20,03,31,7.10
2015,04,20,03,32,7.10
2015,04,20,03,33,7.10
2015,04,20,03,34,7.10
2015,04,20,03,35,7.10
2015,04,20,03,36,7.10
2015,04,20,03,37,7.10
2015,04,20,03,38,7.10
2015,04,20,03,39,7.10
2015,04,20,03,40,7.10
2015,04,20,03,41,7.10
2015,04,20,03,42,7.00
2015,04,20,03,43,7.00
2015,04,20,03,44,7.00
2015,04,20,03,45,7.00
2015,04,20,03,46,6.90
2015,04,20,03,47,6.90
2015,04,20,03,48,7.00
2015,04,20,03,49,7.00
2015,04,20,03,50,7.00
2015,04,20,03,51,7.00
2015,04,20,03,52,7.00
2015,04,20,03,53,7.00
2015,04,20,03,54,7.00
2015,04,20,03,55,7.00
2015,04,20,03,56,6.90
2015,04,20,03,57,6.90
2015,04,20,03,58,6.90
2015,04,20,03,59,6.90
2015,04,20,04,00,6.90
2015,04,20,04,01,6.90
2015,04,20,04,02,6.80
2015,04,20,04,03,6.80
2015,04,20,04,04,6.80
2015,04,20,04,05,6.80
2015,04,20,04,06,6.80
2015,04,20,04,07,6.80
2015,04,20,04,08,6.70
2015,04,20,04,09,6.70
2015,04,20,04,10,6.70
2015,04,20,04,11,6.70
2015,04,20,04,12,6.60
2015,04,20,04,13,6.60
2015,04,20,04,14,6.60
2015,04,20,04,15,6.60
2015,04,20,04,16,6.60
2015,04,20,04,17,6.60
2015,04,20,04,18,6.60
2015,04,20,04,19,6.60
2015,04,20,04,20,6.60
2015,04,20,04,21,6.60
2015,04,20,04,22,6.60
2015,04,20,04,23,6.60
2015,04,20,04,24,6.60
2015,04,20,04,25,6.60
2015,04,20,04,26,6.60
2015,04,20,04,27,6.60
2015,04,20,04,28,6.70
2015,04,20,04,29,6.70
2015,04,20,04,30,6.70
2015,04,20,04,31,6.70
2015,04,20,04,32,6.80
2015,04,20,04,33,6.80
2015,04,20,04,34,6.90
2015,04,20,04,35,7.00
2015,04,20,04,36,7.10
2015,04,20,04,37,7.20
2015,04,20,04,38,7.30
2015,04,20,04,39,7.40
2015,04,20,04,40,7.50
2015,04,20,04,41,7.60
2015,04,20,04,42,7.60
2015,04,20,04,43,7.60
2015,04,20,04,44,7.60
2015,04,20,04,45,7.50
2015,04,20,04,46,7.50
2015,04,20,04,47,7.40
2015,04,20,04,48,7.40
2015,04,20,04,49,7.30
2015,04,20,04,50,7.30
2015,04,20,04,51,7.30
2015,04,20,04,52,7.40
2015,04,20,04,53,7.40
2015,04,20,04,54,7.50
2015,04,20,04,55,7.50
2015,04,20,04,56,7.50
2015,04,20,04,57,7.60
2015,04,20,04,58,7.60
2015,04,20,04,59,7.60
2015,04,20,05,00,7.60
2015,04,20,05,01,7.60
2015,04,20,05,02,7.50
2015,04,20,05,03,7.50
2015,04,20,05,04,7.40
2015,04,20,05,05,7.40
2015,04,20,05,06,7.30
2015,04,20,05,07,7.30
2015,04,20,05,08,7.30
2015,04,20,05,09,7.20
2015,04,20,05,10,7.20
2015,04,20,05,11,7.10
2015,04,20,05,12,7.10
2015,04,20,05,13,7.10
2015,04,20,05,14,7.10
2015,04,20,05,15,7.20
2015,04,20,05,16,7.30
2015,04,20,05,17,7.30
2015,04,20,05,18,7.30
2015,04,20,05,19,7.40
2015,04,20,05,20,7.40
2015,04,20,05,21,7.40
2015,04,20,05,22,7.40
2015,04,20,05,23,7.40
2015,04,20,05,24,7.50
2015,04,20,05,25,7.50
2015,04,20,05,26,7.50
2015,04,20,05,27,7.50
2015,04,20,05,28,7.60
2015,04,20,05,29,7.60
2015,04,20,05,30,7.60
2015,04,20,05,31,7.70
2015,04,20,05,32,7.70
2015,04,20,05,33,7.80
2015,04,20,05,34,7.80
2015,04,20,05,35,7.90
2015,04,20,05,36,7.90
2015,04,20,05,37,7.90
2015,04,20,05,38,7.90
2015,04,20,05,39,7.90
2015,04,20,05,40,7.90
2015,04,20,05,41,7.90
2015,04,20,05,42,7.80
2015,04,20,05,43,7.80
2015,04,20,05,44,7.80
2015,04,20,05,45,7.70
2015,04,20,05,46,7.70
2015,04,20,05,47,7.70
2015,04,20,05,48,7.60
2015,04,20,05,49,7.60
2015,04,20,05,50,7.60
2015,04,20,05,51,7.50
2015,04,20,05,52,7.40
2015,04,20,05,53,7.40
2015,04,20,05,54,7.30
2015,04,20,05,55,7.30
2015,04,20,05,56,7.20
2015,04,20,05,57,7.20
2015,04,20,05,58,7.10
2015,04,20,05,59,7.00
2015,04,20,06,00,7.00
2015,04,20,06,01,6.90
2015,04,20,06,02,6.90
2015,04,20,06,03,6.80
2015,04,20,06,04,6.80
2015,04,20,06,05,6.80
2015,04,20,06,06,6.70
2015,04,20,06,07,6.70
2015,04,20,06,08,6.60
2015,04,20,06,09,6.60
2015,04,20,06,10,6.50
2015,04,20,06,11,6.50
2015,04,20,06,12,6.40
2015,04,20,06,13,6.40
2015,04,20,06,14,6.40
2015,04,20,06,15,6.30
2015,04,20,06,16,6.30
2015,04,20,06,17,6.20
2015,04,20,06,18,6.20
2015,04,20,06,19,6.20
2015,04,20,06,20,6.10
2015,04,20,06,21,6.10
2015,04,20,06,22,6.10
2015,04,20,06,23,6.10
2015,04,20,06,24,6.10
2015,04,20,06,25,6.10
2015,04,20,06,26,6.00
2015,04,20,06,27,6.00
2015,04,20,06,28,6.00
2015,04,20,06,29,6.00
2015,04,20,06,30,6.00
2015,04,20,06,31,6.00
2015,04,20,06,32,6.00
2015,04,20,06,33,5.90
2015,04,20,06,34,6.00
2015,04,20,06,35,5.90
2015,04,20,06,36,5.90
2015,04,20,06,37,5.90
2015,04,20,06,38,5.90
2015,04,20,06,39,5.90
2015,04,20,06,40,5.90
2015,04,20,06,41,5.90
2015,04,20,06,42,5.90
2015,04,20,06,43,5.90
2015,04,20,06,44,6.00
2015,04,20,06,45,6.00
2015,04,20,06,46,6.00
2015,04,20,06,47,6.00
2015,04,20,06,48,6.00
2015,04,20,06,49,6.00
2015,04,20,06,50,6.00
2015,04,20,06,51,6.10
2015,04,20,06,52,6.10
2015,04,20,06,53,6.10
2015,04,20,06,54,6.10
2015,04,20,06,55,6.20
2015,04,20,06,56,6.20
2015,04,20,06,57,6.20
2015,04,20,06,58,6.20
2015,04,20,06,59,6.20
2015,04,20,07,00,6.20
2015,04,20,07,01,6.20
2015,04,20,07,02,6.30
2015,04,20,07,03,6.30
2015,04,20,07,04,6.30
2015,04,20,07,05,6.30
2015,04,20,07,06,6.30
2015,04,20,07,07,6.30
2015,04,20,07,08,6.30
2015,04,20,07,09,6.40
2015,04,20,07,10,6.40
2015,04,20,07,11,6.40
2015,04,20,07,12,6.40
2015,04,20,07,13,6.40
2015,04,20,07,14,6.50
2015,04,20,07,15,6.50
2015,04,20,07,16,6.60
2015,04,20,07,17,6.60
2015,04,20,07,18,6.70
2015,04,20,07,19,6.80
2015,04,20,07,20,6.80
2015,04,20,07,21,7.00
2015,04,20,07,22,7.10
2015,04,20,07,23,7.20
2015,04,20,07,24,7.20
2015,04,20,07,25,7.30
2015,04,20,07,26,7.40
2015,04,20,07,27,7.50
2015,04,20,07,28,7.60
2015,04,20,07,29,7.70
2015,04,20,07,30,7.80
2015,04,20,07,31,7.90
2015,04,20,07,32,8.00
2015,04,20,07,33,8.10
2015,04,20,07,34,8.20
2015,04,20,07,35,8.20
2015,04,20,07,36,8.30
2015,04,20,07,37,8.30
2015,04,20,07,38,8.30
2015,04,20,07,39,8.30
2015,04,20,07,40,8.30
2015,04,20,07,41,8.30
2015,04,20,07,42,8.30
2015,04,20,07,43,8.30
2015,04,20,07,44,8.40
2015,04,20,07,45,8.40
2015,04,20,07,46,8.40
2015,04,20,07,47,8.40
2015,04,20,07,48,8.40
2015,04,20,07,49,8.50
2015,04,20,07,50,8.50
2015,04,20,07,51,8.60
2015,04,20,07,52,8.60
2015,04,20,07,53,8.60
2015,04,20,07,54,8.70
2015,04,20,07,55,8.80
2015,04,20,07,56,8.80
2015,04,20,07,57,8.90
2015,04,20,07,58,8.90
2015,04,20,07,59,9.00
2015,04,20,08,00,9.10
2015,04,20,08,01,9.20
2015,04,20,08,02,9.30
2015,04,20,08,03,9.40
2015,04,20,08,04,9.50
2015,04,20,08,05,9.50
2015,04,20,08,06,9.60
2015,04,20,08,07,9.70
2015,04,20,08,08,9.80
2015,04,20,08,09,9.80
2015,04,20,08,10,9.90
2015,04,20,08,11,9.90
2015,04,20,08,12,10.00
2015,04,20,08,13,10.10
2015,04,20,08,14,10.20
2015,04,20,08,15,10.20
2015,04,20,08,16,10.30
2015,04,20,08,17,10.30
2015,04,20,08,18,10.40
2015,04,20,08,19,10.50
2015,04,20,08,20,10.50
2015,04,20,08,21,10.60
2015,04,20,08,22,10.70
2015,04,20,08,23,10.70
2015,04,20,08,24,10.80
2015,04,20,08,25,10.80
2015,04,20,08,26,10.90
2015,04,20,08,27,10.90
2015,04,20,08,28,10.90
2015,04,20,08,29,11.00
2015,04,20,08,30,11.10
2015,04,20,08,31,11.10
2015,04,20,08,32,11.20
2015,04,20,08,33,11.30
2015,04,20,08,34,11.30
2015,04,20,08,35,11.40
2015,04,20,08,36,11.50
2015,04,20,08,37,11.60
2015,04,20,08,38,11.60
2015,04,20,08,39,11.70
2015,04,20,08,40,11.80
2015,04,20,08,41,11.80
2015,04,20,08,42,11.90
2015,04,20,08,43,12.00
2015,04,20,08,44,12.10
2015,04,20,08,45,12.10
2015,04,20,08,46,12.20
2015,04,20,08,47,12.20
2015,04,20,08,48,12.30
2015,04,20,08,49,12.30
2015,04,20,08,50,12.40
2015,04,20,08,51,12.40
2015,04,20,08,52,12.50
2015,04,20,08,53,12.60
2015,04,20,08,54,12.60
2015,04,20,08,55,12.70
2015,04,20,08,56,12.80
2015,04,20,08,57,12.80
2015,04,20,08,58,12.80
2015,04,20,08,59,12.80
2015,04,20,09,00,12.90
2015,04,20,09,01,12.90
2015,04,20,09,02,13.00
2015,04,20,09,03,13.00
2015,04,20,09,04,13.10
2015,04,20,09,05,13.10
2015,04,20,09,06,13.20
2015,04,20,09,07,13.20
2015,04,20,09,08,13.20
2015,04,20,09,09,13.30
2015,04,20,09,10,13.30
2015,04,20,09,11,13.30
2015,04,20,09,12,13.40
2015,04,20,09,13,13.40
2015,04,20,09,14,13.40
2015,04,20,09,15,13.40
2015,04,20,09,16,13.50
2015,04,20,09,17,13.50
2015,04,20,09,18,13.60
2015,04,20,09,19,13.60
2015,04,20,09,20,13.60
2015,04,20,09,21,13.70
2015,04,20,09,22,13.70
2015,04,20,09,23,13.80
2015,04,20,09,24,13.80
2015,04,20,09,25,13.80
2015,04,20,09,26,13.80
2015,04,20,09,27,13.90
2015,04,20,09,28,13.90
2015,04,20,09,29,13.90
2015,04,20,09,30,13.90
2015,04,20,09,31,13.90
2015,04,20,09,32,14.00
2015,04,20,09,33,13.90
2015,04,20,09,34,13.90
2015,04,20,09,35,13.90
2015,04,20,09,36,13.90
2015,04,20,09,37,13.90
2015,04,20,09,38,13.90
2015,04,20,09,39,14.00
2015,04,20,09,40,14.00
2015,04,20,09,41,14.10
2015,04,20,09,42,14.10
2015,04,20,09,43,14.10
2015,04,20,09,44,14.10
2015,04,20,09,45,14.10
2015,04,20,09,46,14.20
2015,04,20,09,47,14.20
2015,04,20,09,48,14.30
2015,04,20,09,49,14.30
2015,04,20,09,50,14.30
2015,04,20,09,51,14.30
2015,04,20,09,52,14.30
2015,04,20,09,53,14.30
2015,04,20,09,54,14.30
2015,04,20,09,55,14.30
2015,04,20,09,56,14.40
2015,04,20,09,57,14.40
2015,04,20,09,58,14.30
2015,04,20,09,59,14.30
2015,04,20,10,00,14.30
2015,04,20,10,01,14.20
2015,04,20,10,02,14.20
2015,04,20,10,03,14.20
2015,04,20,10,04,14.20
2015,04,20,10,05,14.20
2015,04,20,10,06,14.30
2015,04,20,10,07,14.30
2015,04,20,10,08,14.40
2015,04,20,10,09,14.50
2015,04,20,10,10,14.50
2015,04,20,10,11,14.60
2015,04,20,10,12,14.60
2015,04,20,10,13,14.60
2015,04,20,10,14,14.70
2015,04,20,10,15,14.80
2015,04,20,10,16,14.80
2015,04,20,10,17,14.80
2015,04,20,10,18,14.70
2015,04,20,10,19,14.70
2015,04,20,10,20,14.60
2015,04,20,10,21,14.60
2015,04,20,10,22,14.50
2015,04,20,10,23,14.50
2015,04,20,10,24,14.60
2015,04,20,10,25,14.60
2015,04,20,10,26,14.60
2015,04,20,10,27,14.60
2015,04,20,10,28,14.60
2015,04,20,10,29,14.60
2015,04,20,10,30,14.60
2015,04,20,10,31,14.60
2015,04,20,10,32,14.60
2015,04,20,10,33,14.50
2015,04,20,10,34,14.50
2015,04,20,10,35,14.40
2015,04,20,10,36,14.40
2015,04,20,10,37,14.40
2015,04,20,10,38,14.40
2015,04,20,10,39,14.40
2015,04,20,10,40,14.40
2015,04,20,10,41,14.40
2015,04,20,10,42,14.50
2015,04,20,10,43,14.50
2015,04,20,10,44,14.60
2015,04,20,10,45,14.70
2015,04,20,10,46,14.80
2015,04,20,10,47,14.90
2015,04,20,10,48,15.00
2015,04,20,10,49,15.10
2015,04,20,10,50,15.10
2015,04,20,10,51,15.20
2015,04,20,10,52,15.20
2015,04,20,10,53,15.20
2015,04,20,10,54,15.20
2015,04,20,10,55,15.20
2015,04,20,10,56,15.30
2015,04,20,10,57,15.30
2015,04,20,10,58,15.30
2015,04,20,10,59,15.30
2015,04,20,11,00,15.40
2015,04,20,11,01,15.40
2015,04,20,11,02,15.60
2015,04,20,11,03,15.70
2015,04,20,11,04,15.80
2015,04,20,11,05,15.90
2015,04,20,11,06,16.00
2015,04,20,11,07,16.10
2015,04,20,11,08,16.10
2015,04,20,11,09,16.20
2015,04,20,11,10,16.20
2015,04,20,11,11,16.20
2015,04,20,11,12,16.20
2015,04,20,11,13,16.10
2015,04,20,11,14,16.00
2015,04,20,11,15,15.90
2015,04,20,11,16,15.90
2015,04,20,11,17,15.90
2015,04,20,11,18,15.90
2015,04,20,11,19,15.90
2015,04,20,11,20,16.00
2015,04,20,11,21,16.10
2015,04,20,11,22,16.20
2015,04,20,11,23,16.20
2015,04,20,11,24,16.30
2015,04,20,11,25,16.30
2015,04,20,11,26,16.30
2015,04,20,11,27,16.40
2015,04,20,11,28,16.40
2015,04,20,11,29,16.40
2015,04,20,11,30,16.50
2015,04,20,11,31,16.50
2015,04,20,11,32,16.50
2015,04,20,11,33,16.50
2015,04,20,11,34,16.50
2015,04,20,11,35,16.50
2015,04,20,11,36,16.60
2015,04,20,11,37,16.60
2015,04,20,11,38,16.60
2015,04,20,11,39,16.60
2015,04,20,11,40,16.70
2015,04,20,11,41,16.70
2015,04,20,11,42,16.80
2015,04,20,11,43,16.90
2015,04,20,11,44,16.90
2015,04,20,11,45,17.00
2015,04,20,11,46,17.10
2015,04,20,11,47,17.10
2015,04,20,11,48,17.10
2015,04,20,11,49,17.10
2015,04,20,11,50,17.20
2015,04,20,11,51,17.30
2015,04,20,11,52,17.30
2015,04,20,11,53,17.40
2015,04,20,11,54,17.40
2015,04,20,11,55,17.30
2015,04,20,11,56,17.30
2015,04,20,11,57,17.30
2015,04,20,11,58,17.30
2015,04,20,11,59,17.20
2015,04,20,12,00,17.10
2015,04,20,12,01,17.10
2015,04,20,12,02,17.10
2015,04,20,12,03,17.20
2015,04,20,12,04,17.20
2015,04,20,12,05,17.20
2015,04,20,12,06,17.20
2015,04,20,12,07,17.30
2015,04,20,12,08,17.40
2015,04,20,12,09,17.40
2015,04,20,12,10,17.50
2015,04,20,12,11,17.60
2015,04,20,12,12,17.60
2015,04,20,12,13,17.70
2015,04,20,12,14,17.70
2015,04,20,12,15,17.70
2015,04,20,12,16,17.70
2015,04,20,12,17,17.70
2015,04,20,12,18,17.70
2015,04,20,12,19,17.70
2015,04,20,12,20,17.70
2015,04,20,12,21,17.70
2015,04,20,12,22,17.70
2015,04,20,12,23,17.70
2015,04,20,12,24,17.60
2015,04,20,12,25,17.60
2015,04,20,12,26,17.60
2015,04,20,12,27,17.70
2015,04,20,12,28,17.70
2015,04,20,12,29,17.60
2015,04,20,12,30,17.70
2015,04,20,12,31,17.70
2015,04,20,12,32,17.80
2015,04,20,12,33,17.90
2015,04,20,12,34,18.00
2015,04,20,12,35,18.00
2015,04,20,12,36,18.00
2015,04,20,12,37,17.90
2015,04,20,12,38,17.80
2015,04,20,12,39,17.70
2015,04,20,12,40,17.70
2015,04,20,12,41,17.70
2015,04,20,12,42,17.60
2015,04,20,12,43,17.60
2015,04,20,12,44,17.60
2015,04,20,12,45,17.60
2015,04,20,12,46,17.50
2015,04,20,12,47,17.50
2015,04,20,12,48,17.50
2015,04,20,12,49,17.50
2015,04,20,12,50,17.60
2015,04,20,12,51,17.60
2015,04,20,12,52,17.70
2015,04,20,12,53,17.70
2015,04,20,12,54,17.80
2015,04,20,12,55,17.90
2015,04,20,12,56,18.00
2015,04,20,12,57,18.10
2015,04,20,12,58,18.20
2015,04,20,12,59,18.20
2015,04,20,13,00,18.30
2015,04,20,13,01,18.30
2015,04,20,13,02,18.30
2015,04,20,13,03,18.40
2015,04,20,13,04,18.40
2015,04,20,13,05,18.50
2015,04,20,13,06,18.50
2015,04,20,13,07,18.50
2015,04,20,13,08,18.60
2015,04,20,13,09,18.60
2015,04,20,13,10,18.60
2015,04,20,13,11,18.70
2015,04,20,13,12,18.70
2015,04,20,13,13,18.80
2015,04,20,13,14,18.90
2015,04,20,13,15,18.90
2015,04,20,13,16,18.90
2015,04,20,13,17,18.90
2015,04,20,13,18,18.90
2015,04,20,13,19,19.00
2015,04,20,13,20,19.00
2015,04,20,13,21,19.10
2015,04,20,13,22,19.10
2015,04,20,13,23,19.20
2015,04,20,13,24,19.20
2015,04,20,13,25,19.20
2015,04,20,13,26,19.30
2015,04,20,13,27,19.30
2015,04,20,13,28,19.30
2015,04,20,13,29,19.30
2015,04,20,13,30,19.30
2015,04,20,13,31,19.40
2015,04,20,13,32,19.60
2015,04,20,13,33,19.70
2015,04,20,13,34,19.70
2015,04,20,13,35,19.70
2015,04,20,13,36,19.80
2015,04,20,13,37,19.70
2015,04,20,13,38,19.70
2015,04,20,13,39,19.70
2015,04,20,13,40,19.60
2015,04,20,13,41,19.60
2015,04,20,13,42,19.50
2015,04,20,13,43,19.40
2015,04,20,13,44,19.40
2015,04,20,13,45,19.30
2015,04,20,13,46,19.30
2015,04,20,13,47,19.20
2015,04,20,13,48,19.20
2015,04,20,13,49,19.20
2015,04,20,13,50,19.20
2015,04,20,13,51,19.20
2015,04,20,13,52,19.10
2015,04,20,13,53,19.10
2015,04,20,13,54,19.10
2015,04,20,13,55,19.10
2015,04,20,13,56,19.10
2015,04,20,13,57,19.10
2015,04,20,13,58,19.10
2015,04,20,13,59,19.10
2015,04,20,14,00,19.10
2015,04,20,14,01,19.10
2015,04,20,14,02,19.10
2015,04,20,14,03,19.10
2015,04,20,14,04,19.10
2015,04,20,14,05,19.20
2015,04,20,14,06,19.30
2015,04,20,14,07,19.40
2015,04,20,14,08,19.50
2015,04,20,14,09,19.50
2015,04,20,14,10,19.50
2015,04,20,14,11,19.50
2015,04,20,14,12,19.50
2015,04,20,14,13,19.60
2015,04,20,14,14,19.60
2015,04,20,14,15,19.60
2015,04,20,14,16,19.70
2015,04,20,14,17,19.70
2015,04,20,14,18,19.70
2015,04,20,14,19,19.70
2015,04,20,14,20,19.80
2015,04,20,14,21,19.90
2015,04,20,14,22,19.90
2015,04,20,14,23,19.90
2015,04,20,14,24,19.80
2015,04,20,14,25,19.80
2015,04,20,14,26,19.80
2015,04,20,14,27,19.80
2015,04,20,14,28,19.70
2015,04,20,14,29,19.70
2015,04,20,14,30,19.70
2015,04,20,14,31,19.70
2015,04,20,14,32,19.70
2015,04,20,14,33,19.60
2015,04,20,14,34,19.60
2015,04,20,14,35,19.60
2015,04,20,14,36,19.50
2015,04,20,14,37,19.50
2015,04,20,14,38,19.50
2015,04,20,14,39,19.50
2015,04,20,14,40,19.50
2015,04,20,14,41,19.50
2015,04,20,14,42,19.50
2015,04,20,14,43,19.60
2015,04,20,14,44,19.60
2015,04,20,14,45,19.60
2015,04,20,14,46,19.60
2015,04,20,14,47,19.70
2015,04,20,14,48,19.70
2015,04,20,14,49,19.70
2015,04,20,14,50,19.80
2015,04,20,14,51,19.90
2015,04,20,14,52,20.00
2015,04,20,14,53,20.10
2015,04,20,14,54,20.20
2015,04,20,14,55,20.20
2015,04,20,14,56,20.30
2015,04,20,14,57,20.30
2015,04,20,14,58,20.30
2015,04,20,14,59,20.20
2015,04,20,15,00,20.20
2015,04,20,15,01,20.30
2015,04,20,15,02,20.30
2015,04,20,15,03,20.40
2015,04,20,15,04,20.50
2015,04,20,15,05,20.60
2015,04,20,15,06,20.60
2015,04,20,15,07,20.70
2015,04,20,15,08,20.70
2015,04,20,15,09,20.70
2015,04,20,15,10,20.80
2015,04,20,15,11,20.80
2015,04,20,15,12,20.80
2015,04,20,15,13,20.80
2015,04,20,15,14,20.80
2015,04,20,15,15,20.80
2015,04,20,15,16,20.70
2015,04,20,15,17,20.70
2015,04,20,15,18,20.70
2015,04,20,15,19,20.70
2015,04,20,15,20,20.70
2015,04,20,15,21,20.70
2015,04,20,15,22,20.80
2015,04,20,15,23,20.80
2015,04,20,15,24,20.80
2015,04,20,15,25,20.80
2015,04,20,15,26,20.80
2015,04,20,15,27,20.80
2015,04,20,15,28,20.80
2015,04,20,15,29,20.80
2015,04,20,15,30,20.80
2015,04,20,15,31,20.80
2015,04,20,15,32,20.90
2015,04,20,15,33,21.00
2015,04,20,15,34,21.10
2015,04,20,15,35,21.10
2015,04,20,15,36,21.10
2015,04,20,15,37,21.10
2015,04,20,15,38,21.20
2015,04,20,15,39,21.20
2015,04,20,15,40,21.20
2015,04,20,15,41,21.20
2015,04,20,15,42,21.20
2015,04,20,15,43,21.20
2015,04,20,15,44,21.30
2015,04,20,15,45,21.30
2015,04,20,15,46,21.40
2015,04,20,15,47,21.40
2015,04,20,15,48,21.40
2015,04,20,15,49,21.40
2015,04,20,15,50,21.50
2015,04,20,15,51,21.40
2015,04,20,15,52,21.40
2015,04,20,15,53,21.40
2015,04,20,15,54,21.40
2015,04,20,15,55,21.30
2015,04,20,15,56,21.30
2015,04,20,15,57,21.30
2015,04,20,15,58,21.30
2015,04,20,15,59,21.30
2015,04,20,16,00,21.30
2015,04,20,16,01,21.30
2015,04,20,16,02,21.30
2015,04,20,16,03,21.40
2015,04,20,16,04,21.40
2015,04,20,16,05,21.40
2015,04,20,16,06,21.40
2015,04,20,16,07,21.40
2015,04,20,16,08,21.40
2015,04,20,16,09,21.50
2015,04,20,16,10,21.50
2015,04,20,16,11,21.60
2015,04,20,16,12,21.60
2015,04,20,16,13,21.60
2015,04,20,16,14,21.60
2015,04,20,16,15,21.60
2015,04,20,16,16,21.70
2015,04,20,16,17,21.70
2015,04,20,16,18,21.80
2015,04,20,16,19,21.80
2015,04,20,16,20,21.80
2015,04,20,16,21,21.80
2015,04,20,16,22,21.80
2015,04,20,16,23,21.80
2015,04,20,16,24,21.80
2015,04,20,16,25,21.80
2015,04,20,16,26,21.90
2015,04,20,16,27,21.90
2015,04,20,16,28,21.90
2015,04,20,16,29,21.90
2015,04,20,16,30,21.90
2015,04,20,16,31,21.90
2015,04,20,16,32,21.90
2015,04,20,16,33,21.90
2015,04,20,16,34,21.90
2015,04,20,16,35,21.90
2015,04,20,16,36,21.90
2015,04,20,16,37,22.00
2015,04,20,16,38,22.00
2015,04,20,16,39,22.00
2015,04,20,16,40,22.00
2015,04,20,16,41,22.10
2015,04,20,16,42,22.10
2015,04,20,16,43,22.10
2015,04,20,16,44,22.10
2015,04,20,16,45,22.20
2015,04,20,16,46,22.20
2015,04,20,16,47,22.20
2015,04,20,16,48,22.20
2015,04,20,16,49,22.20
2015,04,20,16,50,22.20
2015,04,20,16,51,22.20
2015,04,20,16,52,22.20
2015,04,20,16,53,22.10
2015,04,20,16,54,22.10
2015,04,20,16,55,22.00
2015,04,20,16,56,22.00
2015,04,20,16,57,22.00
2015,04,20,16,58,22.00
2015,04,20,16,59,21.90
2015,04,20,17,00,21.90
2015,04,20,17,01,21.80
2015,04,20,17,02,21.80
2015,04,20,17,03,21.70
2015,04,20,17,04,21.60
2015,04,20,17,05,21.60
2015,04,20,17,06,21.50
2015,04,20,17,07,21.40
2015,04,20,17,08,21.40
2015,04,20,17,09,21.30
2015,04,20,17,10,21.30
2015,04,20,17,11,21.30
2015,04,20,17,12,21.30
2015,04,20,17,13,21.30
2015,04,20,17,14,21.30
2015,04,20,17,15,21.30
2015,04,20,17,16,21.20
2015,04,20,17,17,21.30
2015,04,20,17,18,21.30
2015,04,20,17,19,21.30
2015,04,20,17,20,21.40
2015,04,20,17,21,21.40
2015,04,20,17,22,21.40
2015,04,20,17,23,21.50
2015,04,20,17,24,21.50
2015,04,20,17,25,21.60
2015,04,20,17,26,21.60
2015,04,20,17,27,21.70
2015,04,20,17,28,21.70
2015,04,20,17,29,21.70
2015,04,20,17,30,21.70
2015,04,20,17,31,21.70
2015,04,20,17,32,21.70
2015,04,20,17,33,21.80
2015,04,20,17,34,21.80
2015,04,20,17,35,21.70
2015,04,20,17,36,21.70
2015,04,20,17,37,21.70
2015,04,20,17,38,21.60
2015,04,20,17,39,21.60
2015,04,20,17,40,21.60